Location: Bauerbach
(50.4985°N, 10.3912°E)
Time: 05:42:32
(UTC+00:00)

Okean 2 - Pass Details

Date: 13 January 2026
Orbit: 515 x 525 km, 82.5° (Epoch: 17 February)

Event Time Altitude Azimuth Distance (km) Brightness Sun altitude
Exits shadow 04:54:21 51° 356° (N) 661 3.5 -21.5°
Maximum altitude 04:55:16 85° 81° (E) 525 3.1 -21.4°
Drops below altitude 10° 04:59:05 10° 169° (S) 1,740 6.1 -20.8°
Sets 05:01:12 0° 170° (S) 2,622 7.0 -20.4°
